Oklahoma City Wiley Post, OK

2:13 PM CDT on September 19, 2017 (GMT -0500)
Wiley Post

Weather History for KPWA - May, 2013

Change the Weather History Date:

Sunday, May 19, 2013

  Actual Average Record
Temperature  
Mean Temperature 76 °F -  
Max Temperature 86 °F 81 °F 96 °F (2006)
Min Temperature 66 °F 59 °F 46 °F (2000)
Cooling Degree Days 11    
Growing Degree Days 26 (Base 50)    
Moisture  
Dew Point 64 °F    
Average Humidity 65    
Maximum Humidity 81    
Minimum Humidity 51    
Precipitation  
Precipitation 0.00 in - - ()
Sea Level Pressure  
Sea Level Pressure 29.61 in    
Wind  
Wind Speed 16 mph (SSE)    
Max Wind Speed 26 mph    
Max Gust Speed 39 mph    
Visibility 7 miles    
Events Rain , Thunderstorm    
Averages and records for this station are not official NWS values.
T = Trace of Precipitation, MM = Missing Value Source: NWS Daily Summary

Daily Weather History Graph

Daily Weather History Graph

Search for Another Location

Airport or City:

Trip Planner

Search our weather history database for the weather conditions in past years. The results will help you decide how hot, cold, wet, or windy it might be!

Date:

Astronomy

May. 19, 2013 Rise Set
Actual Time 6:22 AM CDT 8:31 PM CDT
Civil Twilight 5:54 AM CDT 9:00 PM CDT
Nautical Twilight 5:19 AM CDT 9:35 PM CDT
Astronomical Twilight 4:41 AM CDT 10:13 PM CDT
Moon 2:49 PM CDT 2:34 AM CDT
Length of Visible Light 15h 06m
Length of Day
14h 09m
Waxing Gibbous, 65% of the Moon is Illuminated
May 19
Waxing Gibbous
May 24
Full
May 31
Last Quarter
Jun 8
New
Jun 16
First Quarter

Hourly Weather History & Observations

Time (CDT) Temp. Heat Index Dew Point Humidity Pressure Visibility Wind Dir Wind Speed Gust Speed Precip Events Conditions
12:08 AM 66.2 °F - 59.0 °F 78% 29.73 in 10.0 mi East 13.8 mph 24.2 mph 0.00 in Thunderstorm Thunderstorm
12:27 AM 69.8 °F - 57.2 °F 64% 29.77 in 10.0 mi SE 5.8 mph - 0.00 in Rain Light Rain
12:53 AM 69.1 °F - 59.0 °F 70% 29.70 in 10.0 mi ESE 9.2 mph - 0.00 in   Scattered Clouds
1:53 AM 69.1 °F - 57.9 °F 68% 29.68 in 10.0 mi ESE 12.7 mph - N/A   Mostly Cloudy
2:53 AM 70.0 °F - 59.0 °F 68% 29.65 in 9.0 mi SSE 16.1 mph - N/A   Clear
3:53 AM 71.1 °F - 62.1 °F 73% 29.63 in 7.0 mi SSE 18.4 mph 26.5 mph N/A   Clear
4:53 AM 71.1 °F - 63.0 °F 75% 29.65 in 7.0 mi Variable 4.6 mph - N/A   Clear
5:37 AM 71.6 °F - 64.4 °F 78% 29.67 in 7.0 mi SSE 19.6 mph - N/A   Clear
5:53 AM 70.0 °F - 64.0 °F 81% 29.62 in 7.0 mi South 19.6 mph 26.5 mph N/A   Clear
6:53 AM 71.6 °F - 64.4 °F 78% 29.67 in 6.0 mi South 18.4 mph 27.6 mph N/A   Haze
7:53 AM 72.0 °F - 64.0 °F 76% 29.62 in 6.0 mi South 21.9 mph - N/A   Haze
8:53 AM 73.9 °F - 64.9 °F 73% 29.64 in 7.0 mi South 18.4 mph 27.6 mph N/A   Clear
9:53 AM 77.0 °F - 64.9 °F 66% 29.64 in 7.0 mi South 23.0 mph 33.4 mph N/A   Clear
10:53 AM 80.1 °F 82.3 °F 66.9 °F 64% 29.63 in 7.0 mi South 23.0 mph 29.9 mph N/A   Clear
11:53 AM 82.0 °F 84.5 °F 66.9 °F 60% 29.62 in 7.0 mi South 20.7 mph 33.4 mph N/A   Clear
12:53 PM 82.0 °F 84.5 °F 66.9 °F 60% 29.61 in 7.0 mi South 25.3 mph 33.4 mph N/A   Scattered Clouds
1:53 PM 84.2 °F 86.6 °F 66.2 °F 55% 29.63 in 7.0 mi South 21.9 mph 31.1 mph N/A   Partly Cloudy
2:53 PM 86.0 °F 88.2 °F 66.2 °F 51% 29.61 in 7.0 mi SSE 26.5 mph 34.5 mph N/A   Clear
3:18 PM 82.4 °F 84.6 °F 66.2 °F 58% 29.58 in 6.0 mi SSE 25.3 mph 29.9 mph N/A Thunderstorm Unknown
3:53 PM 82.9 °F 85.0 °F 66.0 °F 56% 29.45 in 6.0 mi SSE 25.3 mph 39.1 mph N/A Thunderstorm Unknown
4:46 PM 84.2 °F 87.3 °F 68.0 °F 58% 29.58 in 6.0 mi South 16.1 mph 27.6 mph 0.00 in Thunderstorm Unknown
4:53 PM 84.9 °F 88.2 °F 68.0 °F 57% 29.53 in 6.0 mi SSE 16.1 mph 25.3 mph 0.00 in Thunderstorm Haze
5:21 PM 82.4 °F 84.6 °F 66.2 °F 58% 29.56 in 6.0 mi SE 19.6 mph 24.2 mph N/A   Haze
5:53 PM 82.0 °F 84.9 °F 68.0 °F 62% 29.51 in 5.0 mi SE 13.8 mph 27.6 mph N/A Thunderstorm Haze
6:09 PM 80.6 °F 82.7 °F 66.2 °F 61% 29.58 in 6.0 mi SE 21.9 mph 28.8 mph N/A   Haze
6:17 PM 80.6 °F 82.7 °F 66.2 °F 61% 29.59 in 6.0 mi SE 26.5 mph 31.1 mph N/A Thunderstorm Haze
6:37 PM 80.6 °F 81.5 °F 60.8 °F 51% 29.57 in 9.0 mi SSE 17.3 mph - N/A   Clear
6:53 PM 78.1 °F - 59.0 °F 52% 29.53 in 9.0 mi SE 18.4 mph - N/A   Clear
7:53 PM 78.1 °F - 62.1 °F 58% 29.56 in 7.0 mi SE 16.1 mph 26.5 mph N/A   Clear
8:53 PM 78.1 °F - 66.0 °F 66% 29.57 in 6.0 mi SE 17.3 mph - N/A   Haze
9:53 PM 79.0 °F - 66.9 °F 66% 29.58 in 5.0 mi SSE 17.3 mph 24.2 mph N/A   Haze
10:53 PM 78.8 °F - 66.2 °F 65% 29.66 in 5.0 mi South 10.4 mph 20.7 mph N/A   Haze
11:53 PM 78.1 °F - 66.9 °F 68% 29.61 in 5.0 mi South 13.8 mph 24.2 mph N/A   Haze